Regional Weather Roundup
Issued by NWS

Home | Current Version | Previous Version | Text Only | Print | Product List | Glossary Off
Versions: 1 2 3 4 5 6 7 8 9 10 11 12 13 14 15 16 17 18 19 20 21 22 23 24 25 26 27 28 29 30 31 32 33 34 35 36 37 38 39 40 41 42 43 44 45 46 47 48 49 50

000
ASUS43 KIND 280109
RWRIN

WEATHER ROUNDUP FOR INDIANA
NATIONAL WEATHER SERVICE INDIANAPOLIS IN
900 PM EDT FRI MAR 27 2015

NOTE: "FAIR" INDICATES FEW OR NO CLOUDS BELOW 12,000 FEET WITH NO
SIGNIFICANT WEATHER AND/OR OBSTRUCTIONS TO VISIBILITY.

* - STATION DOES NOT REPORT WEATHER SUCH AS PRECIPITATION OR FOG.

+ - STATION NOT QUALITY CONTROLLED BY THE NATIONAL WEATHER SERVICE.
    USE DATA WITH CAUTION...ESPECIALLY DEWPOINT AND RELATIVE
    HUMIDITY OBSERVATIONS.

INZ001>003-010>013-019-020-280200-
NORTHWEST INDIANA

CITY           SKY/WX    TMP DP  RH WIND       PRES   REMARKS
GARY /AIRPORT/ PTCLDY    27  10  50 N20       30.20R WCI  13
KNOX *+          N/A     23   0  36 N16       30.16R WCI  10
LA PORTE +     CLOUDY    24  14  64 N17G24    30.16R WCI  11
MICHIGAN CITY+ CLOUDY    23   9  54 N13       30.18R WCI  11
MONTICELLO +   CLEAR     23  14  68 N16       30.16R WCI  10
RENSSELAER +   CLEAR     27  18  69 N12       30.17R WCI  16
VALPARAISO     CLEAR     21  11  65 N12G17    30.17R WCI   9

$$

LMZ046-743>745-280200-
SOUTHERN LAKE MICHIGAN

STATION/POSITION TIME  TEMP WIND        PRES
                       AIR  DIR/SP/G
                 (UTC) (F)  (DEG/KT/KT) (MB)
BURNS HARBOR     0100   25   10/ 17/ 23 1022.4R
MICHIGAN CITY    0100   23  350/ 23/ 27   N/A

$$

INZ004-005-014>016-021>024-280200-
NORTH CENTRAL INDIANA

CITY           SKY/WX    TMP DP  RH WIND       PRES   REMARKS
ELKHART        CLEAR     21   7  53 NW8G16    30.14R WCI  12
GOSHEN         CLEAR     22  11  62 NW16      30.12R WCI   8
LOGANSPORT +   PTCLDY    23  12  63 N13G18    30.15R WCI  11
PERU/GRISSOM   MOCLDY    24  10  56 NW16G24   30.12R WCI  10
ROCHESTER +    MOCLDY    27  12  54 N16       30.14S WCI  14
SOUTH BEND     PTCLDY    22  10  60 N15       30.16R WCI   9
WARSAW +       CLEAR     21  10  63 NW12G18   30.12R WCI   9

$$

INZ006>009-017-018-025>027-280200-
NORTHEAST INDIANA

CITY           SKY/WX    TMP DP  RH WIND       PRES   REMARKS
ANGOLA *+      CLEAR     23  12  63 NW8       30.07R WCI  14
AUBURN +       CLEAR     27  10  50 NW8       30.09R WCI  18
FORT WAYNE     PTCLDY    25  11  55 NW14      30.10R WCI  13
HUNTINGTON +   CLEAR     23   7  51 NW14      30.11R WCI  11

$$

INZ028-029-035-036-043>045-051>053-280200-
WEST CENTRAL INDIANA

CITY           SKY/WX    TMP DP  RH WIND       PRES   REMARKS
CRAWFORDSVL +  CLEAR     24  10  56 MISG      30.15R
GREENCASTLE +  CLEAR     28  12  50 N10       30.14R WCI  19
LAFAYETTE      CLEAR     24  11  57 N13       30.17R WCI  12
TERRE HAUTE    PTCLDY    30  18  60 N9        30.15R WCI  22

$$

INZ030>032-037>040-046>048-054>057-064-065-280200-
CENTRAL INDIANA

CITY           SKY/WX    TMP DP  RH WIND       PRES   REMARKS
CP ATTERBURY + PTCLDY    30  18  59 NW14G20   30.12R WCI  20
COLUMBUS       MOCLDY    30  12  47 NW12      30.11R WCI  21
FRANKFORT +    MOCLDY    26  15  63 NW14      30.15R WCI  14
GREENWOOD *+   MOCLDY    28  12  50 NW12      30.11R WCI  18
INDIANAPOLIS   FLURRIES  27  14  58 NW14      30.11R WCI  16
-EAGLE CREEK   CLOUDY    27  13  55 N15       30.12R WCI  15
KOKOMO *+        N/A     25  12  58 NW16      30.13R WCI  12
MARION +       CLOUDY    25  12  57 N9G18     30.12R WCI  16
MT COMFORT *+  CLOUDY    27   5  39 N17       30.12R WCI  14
SHELBYVILLE    CLOUDY    29  14  53 N14       30.10R WCI  18
ZIONSVILLE +   FLURRIES  26  15  62 N15G24    30.13R WCI  14

$$

INZ033-034-041-042-049-050-058-059-280200-
EAST CENTRAL INDIANA

CITY           SKY/WX    TMP DP  RH WIND       PRES   REMARKS
MUNCIE         CLOUDY    26  13  57 NW18      30.09R WCI  13

$$

INZ060-061-067>069-081>083-085>088-280200-
SOUTHWEST INDIANA

CITY           SKY/WX    TMP DP  RH WIND       PRES   REMARKS
EVANSVILLE     CLOUDY    38  20  48 N6        30.14R
HUNTINGBURG *+ PTCLDY    34  21  60 N7        30.14R WCI  28
WASHINGTON +   PTCLDY    32  18  55 NW10      30.14R WCI  24

$$

INZ062-063-066-070>080-084-089>092-280200-
SOUTH CENTRAL AND SOUTHEAST INDIANA

CITY           SKY/WX    TMP DP  RH WIND       PRES   REMARKS
BEDFORD +      MOCLDY    32  16  51 N12       30.11R WCI  23
BLOOMINGTON    MOCLDY    30  16  56 N7        30.11R WCI  23
NORTH VERNON + MOCLDY    30  16  55 NW10G18   30.10R WCI  21
SEYMOUR +      MOCLDY    32  16  51 N13       30.11R WCI  22

$$




USA.gov is the U.S. government's official web portal to all federal, state and local government web resources and services.